Location: Home
(42.5358°N, 72.7383°W)
Time: 18:01:56
(UTC-05:00)

Tiros 1 - Visible Passes

Search period start: 29 November 2021 00:00
Search period end: 09 December 2021 00:00
Orbit: 630 x 664 km, 48.4° (Epoch: 29 November)

Date Brightness Start Highest point End Pass type
(mag) Time Alt. Az. Time Alt. Az. Time Alt. Az.
29 Nov 9.4 18:15:38 10° SSE 18:16:18 12° SSE 18:16:18 12° SSE visible
30 Nov 8.8 18:39:21 10° SSW 18:41:33 22° S 18:41:33 22° S visible
01 Dec 9.2 17:25:47 10° SSE 17:27:37 12° SE 17:29:02 11° ESE visible
01 Dec 8.8 19:04:28 10° SW 19:06:43 27° SW 19:06:43 27° SW visible
02 Dec 8.3 17:49:10 10° SSW 17:53:04 27° SE 17:54:09 24° ESE visible
02 Dec 9.4 19:30:16 10° WSW 19:31:49 21° WSW 19:31:49 21° WSW visible
03 Dec 7.3 18:14:12 10° SW 18:18:43 55° SE 18:19:11 52° ESE visible
03 Dec 10.1 19:56:25 10° W 19:56:51 12° W 19:56:51 12° W visible
04 Dec 8.5 16:59:00 10° SSW 17:02:46 25° SE 17:06:29 10° E visible
04 Dec 7.2 18:39:55 10° WSW 18:44:09 72° W 18:44:09 72° W visible
05 Dec 7.5 17:23:55 10° SW 17:28:23 51° SE 17:31:24 20° ENE visible
05 Dec 8.5 19:06:03 10° W 19:09:04 36° WNW 19:09:04 36° WNW visible
06 Dec 7.1 17:49:35 10° WSW 17:54:13 87° NNW 17:56:16 34° ENE visible
06 Dec 9.5 19:32:21 10° WNW 19:33:56 20° WNW 19:33:56 20° WNW visible
07 Dec 7.4 18:15:41 10° W 18:20:15 55° NNW 18:21:06 47° NNE visible
07 Dec 10.2 19:58:36 10° WNW 19:58:45 11° WNW 19:58:45 11° WNW visible
08 Dec 7.1 16:59:15 10° WSW 17:03:53 88° SSE 17:08:15 12° ENE visible
08 Dec 8.0 18:41:58 10° W 18:45:54 41° NNW 18:45:54 41° NNW visible
